| time (UTC) | temp F | wind direction | speed MPH | gust MPH | rain 1hr in | rain 24hr in | rain mn in | humidity % | barometer mb |
| 20260508135535 | 62 | 260 | 6.0 | 14.0 | 0.00 | 0.05 | 0.00 | 62 | 1019.0 |
| 20260508135036 | 62 | 272 | 9.0 | 15.0 | 0.00 | 0.05 | 0.00 | 61 | 1019.0 |
| 20260508134534 | 63 | 282 | 8.0 | 15.0 | 0.00 | 0.05 | 0.00 | 60 | 1019.1 |
| 20260508134033 | 64 | 267 | 7.0 | 13.0 | 0.00 | 0.05 | 0.00 | 58 | 1019.1 |
| 20260508133532 | 64 | 281 | 5.0 | 12.0 | 0.00 | 0.05 | 0.00 | 58 | 1019.1 |
| 20260508133031 | 64 | 304 | 7.0 | 12.0 | 0.00 | 0.05 | 0.00 | 58 | 1019.1 |
| 20260508132530 | 64 | 272 | 5.0 | 14.0 | 0.00 | 0.05 | 0.00 | 60 | 1019.2 |
| 20260508132030 | 64 | 260 | 7.0 | 14.0 | 0.00 | 0.05 | 0.00 | 56 | 1019.2 |
| 20260508131530 | 64 | 314 | 4.0 | 10.0 | 0.00 | 0.05 | 0.00 | 61 | 1019.4 |
| 20260508131029 | 64 | 276 | 5.0 | 12.0 | 0.00 | 0.05 | 0.00 | 60 | 1019.4 |
| 20260508130529 | 64 | 293 | 5.0 | 13.0 | 0.00 | 0.05 | 0.00 | 61 | 1019.5 |
| 20260508130029 | 64 | 322 | 7.0 | 13.0 | 0.00 | 0.05 | 0.00 | 60 | 1019.4 |
| 20260508125529 | 64 | 314 | 5.0 | 13.0 | 0.00 | 0.07 | 0.00 | 59 | 1019.5 |
| 20260508125029 | 64 | 275 | 6.0 | 15.0 | 0.00 | 0.07 | 0.00 | 54 | 1019.5 |
| 20260508124529 | 64 | 285 | 8.0 | 15.0 | 0.00 | 0.07 | 0.00 | 53 | 1019.5 |
| 20260508124028 | 63 | 319 | 6.0 | 13.0 | 0.00 | 0.07 | 0.00 | 52 | 1019.6 |
| 20260508123528 | 63 | 287 | 8.0 | 13.0 | 0.00 | 0.07 | 0.00 | 51 | 1019.4 |
| 20260508123029 | 64 | 297 | 6.0 | 12.0 | 0.00 | 0.07 | 0.00 | 52 | 1019.5 |
| 20260508122527 | 64 | 286 | 6.0 | 11.0 | 0.00 | 0.07 | 0.00 | 52 | 1019.5 |
| 20260508122027 | 64 | 278 | 6.0 | 11.0 | 0.00 | 0.07 | 0.00 | 52 | 1019.4 |
| 20260508121527 | 64 | 314 | 8.0 | 14.0 | 0.00 | 0.07 | 0.00 | 53 | 1019.3 |
| 20260508121027 | 64 | 314 | 5.0 | 12.0 | 0.00 | 0.07 | 0.00 | 52 | 1019.3 |
| 20260508120525 | 63 | 291 | 7.0 | 14.0 | 0.00 | 0.07 | 0.00 | 53 | 1019.3 |
| 20260508120035 | 64 | 314 | 10.0 | 14.0 | 0.00 | 0.07 | 0.00 | 53 | 1019.2 |
| 20260508115525 | 64 | 289 | 7.0 | 13.0 | 0.00 | 0.07 | 0.00 | 54 | 1019.2 |
| 20260508115024 | 64 | 318 | 9.0 | 13.0 | 0.00 | 0.07 | 0.00 | 54 | 1019.3 |
| 20260508114523 | 64 | 280 | 6.0 | 12.0 | 0.00 | 0.07 | 0.00 | 54 | 1019.3 |
| 20260508114022 | 64 | 324 | 6.0 | 10.0 | 0.00 | 0.07 | 0.00 | 54 | 1019.3 |
| 20260508113521 | 64 | 299 | 4.0 | 11.0 | 0.00 | 0.07 | 0.00 | 57 | 1019.5 |
| 20260508113020 | 63 | 304 | 5.0 | 12.0 | 0.00 | 0.07 | 0.00 | 56 | 1019.5 |
| 20260508112519 | 63 | 320 | 8.0 | 12.0 | 0.00 | 0.07 | 0.00 | 55 | 1019.5 |
| 20260508112018 | 63 | 314 | 5.0 | 13.0 | 0.00 | 0.07 | 0.00 | 59 | 1019.5 |
| 20260508111517 | 63 | 295 | 7.0 | 13.0 | 0.00 | 0.07 | 0.00 | 55 | 1019.6 |
| 20260508111017 | 63 | 309 | 7.0 | 10.0 | 0.00 | 0.07 | 0.00 | 56 | 1019.6 |
| 20260508110521 | 63 | 314 | 5.0 | 11.0 | 0.00 | 0.07 | 0.00 | 59 | 1019.7 |
| 20260508110014 | 63 | 267 | 6.0 | 11.0 | 0.00 | 0.07 | 0.00 | 59 | 1019.8 |
| 20260508105513 | 62 | 276 | 3.0 | 10.0 | 0.00 | 0.07 | 0.00 | 63 | 1019.8 |
| 20260508105012 | 62 | 295 | 5.0 | 10.0 | 0.00 | 0.07 | 0.00 | 63 | 1019.9 |
| 20260508104510 | 62 | 314 | 4.0 | 9.0 | 0.00 | 0.07 | 0.00 | 63 | 1020.0 |
| 20260508104010 | 61 | 309 | 5.0 | 10.0 | 0.00 | 0.07 | 0.00 | 62 | 1020.0 |
| 20260508103508 | 61 | 304 | 3.0 | 10.0 | 0.00 | 0.07 | 0.00 | 62 | 1020.1 |
| 20260508103019 | 61 | 299 | 4.0 | 10.0 | 0.00 | 0.07 | 0.00 | 62 | 1020.2 |
| 20260508102506 | 60 | 304 | 6.0 | 11.0 | 0.00 | 0.07 | 0.00 | 62 | 1020.3 |
| 20260508102004 | 60 | 260 | 7.0 | 11.0 | 0.00 | 0.07 | 0.00 | 62 | 1020.3 |
| 20260508101507 | 60 | 294 | 4.0 | 9.0 | 0.00 | 0.07 | 0.00 | 66 | 1020.4 |
| 20260508101003 | 59 | 304 | 7.0 | 10.0 | 0.00 | 0.07 | 0.00 | 66 | 1020.3 |
| 20260508100500 | 59 | 325 | 4.0 | 10.0 | 0.00 | 0.07 | 0.00 | 67 | 1020.4 |
| 20260508100100 | 59 | 324 | 5.0 | 10.0 | 0.00 | 0.07 | 0.00 | 68 | 1020.3 |
| 20260508095601 | 59 | 304 | 6.0 | 10.0 | 0.00 | 0.07 | 0.00 | 71 | 1020.4 |
| 20260508095058 | 58 | 314 | 6.0 | 10.0 | 0.00 | 0.07 | 0.00 | 71 | 1020.4 |
| 20260508094612 | 58 | 322 | 6.0 | 10.0 | 0.00 | 0.07 | 0.00 | 71 | 1020.4 |
| 20260508094055 | 58 | 287 | 5.0 | 10.0 | 0.00 | 0.07 | 0.00 | 71 | 1020.5 |
| 20260508093554 | 58 | 338 | 5.0 | 9.0 | 0.00 | 0.07 | 0.00 | 72 | 1020.6 |
| 20260508093056 | 58 | 309 | 5.0 | 9.0 | 0.00 | 0.07 | 0.00 | 70 | 1020.7 |
| 20260508092553 | 57 | 314 | 2.0 | 8.0 | 0.00 | 0.07 | 0.00 | 75 | 1020.7 |
| 20260508092053 | 57 | 304 | 3.0 | 8.0 | 0.00 | 0.07 | 0.00 | 72 | 1020.8 |
| 20260508091550 | 57 | 314 | 2.0 | 9.0 | 0.00 | 0.07 | 0.00 | 73 | 1020.8 |
| 20260508091049 | 56 | 309 | 4.0 | 9.0 | 0.00 | 0.07 | 0.00 | 73 | 1020.9 |
| 20260508090548 | 56 | 318 | 5.0 | 8.0 | 0.00 | 0.07 | 0.00 | 72 | 1020.9 |
| 20260508090058 | 56 | 309 | 3.0 | 9.0 | 0.00 | 0.07 | 0.00 | 72 | 1021.0 |
| 20260508085545 | 56 | 304 | 5.0 | 9.0 | 0.00 | 0.18 | 0.00 | 74 | 1021.1 |
| 20260508085044 | 55 | 291 | 4.0 | 9.0 | 0.00 | 0.18 | 0.00 | 73 | 1021.1 |
| 20260508084543 | 55 | 276 | 5.0 | 8.0 | 0.00 | 0.18 | 0.00 | 74 | 1021.1 |
| 20260508084043 | 55 | 309 | 4.0 | 8.0 | 0.00 | 0.18 | 0.00 | 75 | 1021.2 |
| 20260508083542 | 55 | 284 | 4.0 | 8.0 | 0.00 | 0.18 | 0.00 | 77 | 1021.2 |
| 20260508083046 | 54 | 298 | 4.0 | 8.0 | 0.00 | 0.18 | 0.00 | 77 | 1021.3 |
| 20260508082540 | 54 | 295 | 3.0 | 9.0 | 0.00 | 0.18 | 0.00 | 74 | 1021.4 |
| 20260508082040 | 54 | 287 | 4.0 | 10.0 | 0.00 | 0.18 | 0.00 | 76 | 1021.4 |
| 20260508081541 | 54 | 304 | 6.0 | 10.0 | 0.00 | 0.18 | 0.00 | 76 | 1021.4 |
| 20260508081038 | 54 | 318 | 5.0 | 8.0 | 0.00 | 0.18 | 0.00 | 76 | 1021.4 |
| 20260508080538 | 54 | 289 | 3.0 | 8.0 | 0.00 | 0.18 | 0.00 | 77 | 1021.3 |
| 20260508080037 | 53 | 299 | 3.0 | 8.0 | 0.00 | 0.18 | 0.00 | 77 | 1021.4 |
| 20260508075533 | 53 | 357 | 0.0 | 6.0 | 0.00 | 0.18 | 0.00 | 78 | 1021.5 |
| 20260508075031 | 53 | 67 | 0.0 | 4.0 | 0.00 | 0.18 | 0.00 | 77 | 1021.5 |
| 20260508074531 | 53 | 29 | 0.0 | 3.0 | 0.00 | 0.18 | 0.00 | 78 | 1021.5 |
| 20260508074029 | 53 | 62 | 0.0 | 3.0 | 0.00 | 0.18 | 0.00 | 78 | 1021.5 |
| 20260508073527 | 52 | 111 | 0.0 | 3.0 | 0.00 | 0.18 | 0.00 | 80 | 1021.5 |
| 20260508073030 | 52 | 121 | 0.0 | 3.0 | 0.00 | 0.18 | 0.00 | 82 | 1021.5 |
| 20260508072524 | 52 | 96 | 0.0 | 2.0 | 0.00 | 0.18 | 0.00 | 85 | 1021.6 |
| 20260508072023 | 51 | 360 | 0.0 | 3.0 | 0.00 | 0.18 | 0.00 | 83 | 1021.6 |
| 20260508071528 | 50 | 360 | 0.0 | 3.0 | 0.00 | 0.18 | 0.00 | 86 | 1021.6 |
| 20260508071026 | 51 | 360 | 0.0 | 2.0 | 0.00 | 0.18 | 0.00 | 85 | 1021.7 |
| 20260508070521 | 51 | 360 | 0.0 | 3.0 | 0.00 | 0.18 | 0.00 | 84 | 1021.8 |
| 20260508070020 | 50 | 130 | 0.0 | 3.0 | 0.00 | 0.18 | 0.00 | 90 | 1021.8 |
| 20260508065518 | 49 | 309 | 0.0 | 4.0 | 0.00 | 0.18 | 0.00 | 89 | 1021.8 |
| 20260508065016 | 49 | 309 | 2.0 | 4.0 | 0.00 | 0.18 | 0.00 | 90 | 1021.8 |
| 20260508064528 | 48 | 309 | 2.0 | 4.0 | 0.00 | 0.18 | 0.00 | 93 | 1021.9 |
| 20260508064013 | 47 | 304 | 0.0 | 4.0 | 0.00 | 0.18 | 0.00 | 95 | 1021.9 |
| 20260508063512 | 46 | 168 | 0.0 | 0.0 | 0.00 | 0.18 | 0.00 | 97 | 1021.9 |
| 20260508063011 | 45 | 168 | 0.0 | 0.0 | 0.00 | 0.18 | 0.00 | 96 | 1021.8 |
| 20260508062508 | 44 | 168 | 0.0 | 0.0 | 0.00 | 0.18 | 0.00 | 96 | 1021.7 |
| 20260508062010 | 44 | 168 | 0.0 | 0.0 | 0.00 | 0.18 | 0.00 | 96 | 1021.6 |
| 20260508061515 | 44 | 168 | 0.0 | 0.0 | 0.00 | 0.18 | 0.00 | 96 | 1021.5 |
| 20260508061010 | 43 | 168 | 0.0 | 0.0 | 0.00 | 0.18 | 0.00 | 96 | 1021.5 |
| 20260508060506 | 43 | 168 | 0.0 | 0.0 | 0.00 | 0.18 | 0.00 | 96 | 1021.6 |
| 20260508060005 | 43 | 168 | 0.0 | 0.0 | 0.00 | 0.18 | 0.00 | 96 | 1021.6 |
| 20260508055505 | 43 | 309 | 0.0 | 0.0 | 0.00 | 0.18 | 0.00 | 96 | 1021.5 |
| 20260508055004 | 43 | 168 | 0.0 | 0.0 | 0.00 | 0.18 | 0.00 | 96 | 1021.5 |
| 20260508054504 | 43 | 168 | 0.0 | 0.0 | 0.00 | 0.18 | 0.00 | 96 | 1021.5 |
| 20260508054002 | 42 | 309 | 0.0 | 0.0 | 0.00 | 0.18 | 0.00 | 96 | 1021.5 |
| 20260508053502 | 42 | 168 | 0.0 | 0.0 | 0.00 | 0.18 | 0.00 | 96 | 1021.5 |
| 20260508053007 | 42 | 309 | 0.0 | 0.0 | 0.00 | 0.18 | 0.00 | 96 | 1021.5 |
| 20260508052502 | 42 | 168 | 0.0 | 0.0 | 0.00 | 0.18 | 0.00 | 96 | 1021.5 |
| 20260508052002 | 42 | 168 | 0.0 | 0.0 | 0.00 | 0.18 | 0.00 | 96 | 1021.5 |
| 20260508051501 | 42 | 168 | 0.0 | 0.0 | 0.00 | 0.18 | 0.00 | 96 | 1021.5 |
| 20260508051001 | 42 | 309 | 0.0 | 0.0 | 0.00 | 0.18 | 0.00 | 96 | 1021.4 |
| 20260508050501 | 42 | 309 | 0.0 | 0.0 | 0.00 | 0.18 | 0.00 | 96 | 1021.4 |
| 20260508050003 | 42 | 309 | 0.0 | 0.0 | 0.00 | 0.18 | 0.00 | 96 | 1021.4 |
| 20260508045600 | 42 | 309 | 0.0 | 0.0 | 0.00 | 0.18 | 0.00 | 96 | 1021.3 |
| 20260508045103 | 42 | 309 | 0.0 | 0.0 | 0.00 | 0.18 | 0.00 | 96 | 1021.4 |
| 20260508044603 | 42 | 168 | 0.0 | 0.0 | 0.00 | 0.18 | 0.00 | 96 | 1021.4 |
| 20260508044102 | 42 | 168 | 0.0 | 0.0 | 0.00 | 0.18 | 0.00 | 96 | 1021.4 |
| 20260508043558 | 42 | 309 | 0.0 | 0.0 | 0.00 | 0.18 | 0.00 | 96 | 1021.4 |
| 20260508043103 | 42 | 168 | 0.0 | 0.0 | 0.00 | 0.18 | 0.00 | 96 | 1021.4 |
| 20260508042557 | 42 | 168 | 0.0 | 0.0 | 0.00 | 0.18 | 0.00 | 96 | 1021.4 |
| 20260508042101 | 42 | 168 | 0.0 | 0.0 | 0.00 | 0.18 | 0.00 | 96 | 1021.4 |
| 20260508041558 | 42 | 168 | 0.0 | 0.0 | 0.00 | 0.18 | 0.00 | 96 | 1021.3 |
| 20260508041054 | 42 | 168 | 0.0 | 0.0 | 0.00 | 0.18 | 0.00 | 96 | 1021.3 |
| 20260508040556 | 42 | 168 | 0.0 | 0.0 | 0.00 | 0.18 | 0.00 | 95 | 1021.2 |
| 20260508040053 | 42 | 168 | 0.0 | 0.0 | 0.00 | 0.18 | 0.00 | 95 | 1021.2 |
| 20260508035553 | 42 | 168 | 0.0 | 0.0 | 0.00 | 0.18 | 0.00 | 96 | 1021.1 |
| 20260508035053 | 42 | 168 | 0.0 | 0.0 | 0.00 | 0.18 | 0.00 | 95 | 1021.0 |
| 20260508034557 | 42 | 309 | 0.0 | 0.0 | 0.00 | 0.18 | 0.00 | 95 | 1021.0 |
| 20260508034053 | 42 | 309 | 0.0 | 0.0 | 0.00 | 0.18 | 0.00 | 95 | 1021.1 |
| 20260508033552 | 42 | 168 | 0.0 | 0.0 | 0.00 | 0.18 | 0.00 | 95 | 1021.0 |
| 20260508032551 | 42 | 168 | 0.0 | 0.0 | 0.00 | 0.18 | 0.00 | 95 | 1021.0 |
| 20260508032051 | 42 | 168 | 0.0 | 0.0 | 0.00 | 0.18 | 0.00 | 95 | 1020.9 |
| 20260508031550 | 43 | 168 | 0.0 | 0.0 | 0.00 | 0.18 | 0.00 | 95 | 1020.9 |
| 20260508031051 | 43 | 168 | 0.0 | 2.0 | 0.00 | 0.18 | 0.00 | 95 | 1020.9 |
| 20260508030549 | 43 | 168 | 0.0 | 2.0 | 0.00 | 0.18 | 0.00 | 95 | 1020.8 |
| 20260508030048 | 43 | 168 | 0.0 | 1.0 | 0.00 | 0.18 | 0.00 | 95 | 1020.7 |
| 20260508025549 | 43 | 168 | 0.0 | 0.0 | 0.00 | 0.18 | 0.00 | 95 | 1020.7 |
| 20260508025048 | 43 | 168 | 0.0 | 0.0 | 0.00 | 0.18 | 0.00 | 95 | 1020.7 |
| 20260508024550 | 43 | 168 | 0.0 | 0.0 | 0.00 | 0.18 | 0.00 | 95 | 1020.7 |
| 20260508024051 | 43 | 168 | 0.0 | 0.0 | 0.00 | 0.18 | 0.00 | 95 | 1020.7 |
| 20260508023546 | 43 | 168 | 0.0 | 0.0 | 0.00 | 0.18 | 0.00 | 95 | 1020.7 |
| 20260508023050 | 43 | 169 | 0.0 | 0.0 | 0.00 | 0.18 | 0.00 | 95 | 1020.7 |
| 20260508022547 | 43 | 168 | 0.0 | 2.0 | 0.00 | 0.18 | 0.00 | 95 | 1020.7 |
| 20260508022048 | 43 | 168 | 0.0 | 3.0 | 0.00 | 0.18 | 0.00 | 94 | 1020.7 |
| 20260508021547 | 43 | 168 | 0.0 | 3.0 | 0.00 | 0.18 | 0.00 | 94 | 1020.7 |
| 20260508021044 | 44 | 168 | 0.0 | 4.0 | 0.00 | 0.18 | 0.00 | 94 | 1020.7 |
| 20260508020544 | 44 | 168 | 1.0 | 4.0 | 0.00 | 0.18 | 0.00 | 94 | 1020.8 |
| 20260508020044 | 44 | 168 | 1.0 | 2.0 | 0.00 | 0.18 | 0.00 | 94 | 1020.8 |
| 20260508015543 | 44 | 168 | 1.0 | 2.0 | 0.00 | 0.18 | 0.00 | 94 | 1020.8 |
| 20260508015043 | 44 | 168 | 1.0 | 3.0 | 0.00 | 0.18 | 0.00 | 94 | 1020.9 |
| 20260508014549 | 44 | 168 | 0.0 | 3.0 | 0.00 | 0.18 | 0.00 | 94 | 1021.0 |
| 20260508014046 | 44 | 174 | 0.0 | 3.0 | 0.00 | 0.18 | 0.00 | 94 | 1021.0 |
| 20260508013540 | 44 | 171 | 0.0 | 3.0 | 0.00 | 0.18 | 0.00 | 94 | 1021.0 |
| 20260508013044 | 44 | 170 | 0.0 | 4.0 | 0.00 | 0.18 | 0.00 | 94 | 1021.1 |
| 20260508012540 | 44 | 166 | 1.0 | 4.0 | 0.00 | 0.18 | 0.00 | 94 | 1021.1 |
| 20260508012040 | 44 | 186 | 0.0 | 0.0 | 0.00 | 0.18 | 0.00 | 94 | 1021.1 |
| 20260508011543 | 44 | 187 | 0.0 | 0.0 | 0.00 | 0.18 | 0.00 | 93 | 1021.1 |
| 20260508011039 | 44 | 187 | 0.0 | 0.0 | 0.00 | 0.18 | 0.00 | 93 | 1021.0 |
| 20260508010542 | 44 | 309 | 0.0 | 0.0 | 0.00 | 0.18 | 0.00 | 93 | 1021.0 |
| 20260508010037 | 44 | 187 | 0.0 | 0.0 | 0.00 | 0.18 | 0.00 | 93 | 1021.0 |
| 20260508005538 | 44 | 188 | 0.0 | 0.0 | 0.00 | 0.18 | 0.00 | 93 | 1021.0 |
| 20260508005037 | 44 | 188 | 0.0 | 0.0 | 0.00 | 0.18 | 0.00 | 93 | 1021.1 |
| 20260508004536 | 44 | 188 | 0.0 | 0.0 | 0.00 | 0.18 | 0.00 | 93 | 1021.1 |
| 20260508004036 | 45 | 188 | 0.0 | 0.0 | 0.00 | 0.18 | 0.00 | 93 | 1021.1 |
| 20260508003535 | 44 | 188 | 0.0 | 0.0 | 0.00 | 0.18 | 0.00 | 93 | 1021.1 |
| 20260508003054 | 45 | 188 | 0.0 | 0.0 | 0.00 | 0.18 | 0.00 | 93 | 1021.1 |
| 20260508002535 | 44 | 188 | 0.0 | 0.0 | 0.00 | 0.18 | 0.00 | 93 | 1021.0 |
| 20260508002035 | 44 | 188 | 0.0 | 0.0 | 0.00 | 0.18 | 0.00 | 93 | 1021.0 |
| 20260508001533 | 44 | 188 | 0.0 | 0.0 | 0.00 | 0.18 | 0.00 | 92 | 1021.2 |
| 20260508001033 | 44 | 188 | 0.0 | 0.0 | 0.00 | 0.18 | 0.00 | 92 | 1021.2 |
| 20260508000533 | 45 | 188 | 0.0 | 0.0 | 0.00 | 0.18 | 0.00 | 91 | 1021.2 |
| 20260508000031 | 45 | 188 | 0.0 | 0.0 | 0.00 | 0.18 | 0.00 | 91 | 1021.3 |
| 20260507235531 | 45 | 188 | 0.0 | 0.0 | 0.00 | 0.18 | 0.00 | 92 | 1021.3 |
| 20260507235031 | 45 | 309 | 0.0 | 0.0 | 0.00 | 0.18 | 0.00 | 91 | 1021.3 |
| 20260507234531 | 46 | 188 | 0.0 | 3.0 | 0.00 | 0.18 | 0.00 | 92 | 1021.4 |
| 20260507234030 | 45 | 188 | 1.0 | 3.0 | 0.00 | 0.18 | 0.00 | 93 | 1021.4 |
| 20260507233530 | 45 | 167 | 0.0 | 1.0 | 0.00 | 0.18 | 0.00 | 92 | 1021.4 |
| 20260507233034 | 45 | 167 | 0.0 | 0.0 | 0.00 | 0.18 | 0.00 | 92 | 1021.4 |
| 20260507232529 | 45 | 167 | 0.0 | 0.0 | 0.00 | 0.18 | 0.00 | 92 | 1021.4 |
| 20260507232029 | 45 | 166 | 0.0 | 0.0 | 0.00 | 0.18 | 0.00 | 92 | 1021.5 |
| 20260507231531 | 45 | 167 | 0.0 | 0.0 | 0.00 | 0.18 | 0.00 | 91 | 1021.5 |
| 20260507231030 | 45 | 167 | 0.0 | 0.0 | 0.00 | 0.18 | 0.00 | 91 | 1021.5 |
| 20260507230529 | 45 | 167 | 0.0 | 0.0 | 0.00 | 0.18 | 0.00 | 91 | 1021.5 |
| 20260507230028 | 45 | 167 | 0.0 | 3.0 | 0.00 | 0.18 | 0.00 | 91 | 1021.6 |
| 20260507225528 | 45 | 167 | 0.0 | 3.0 | 0.00 | 0.18 | 0.00 | 91 | 1021.6 |
| 20260507225026 | 46 | 260 | 0.0 | 0.0 | 0.00 | 0.18 | 0.00 | 90 | 1021.6 |
| 20260507224526 | 46 | 260 | 0.0 | 0.0 | 0.00 | 0.18 | 0.00 | 90 | 1021.5 |
| 20260507224024 | 46 | 309 | 0.0 | 0.0 | 0.00 | 0.18 | 0.00 | 90 | 1021.5 |
| 20260507223523 | 46 | 258 | 0.0 | 2.0 | 0.00 | 0.18 | 0.00 | 89 | 1021.5 |
| 20260507223022 | 46 | 259 | 1.0 | 2.0 | 0.00 | 0.18 | 0.00 | 89 | 1021.5 |
| 20260507222522 | 46 | 259 | 0.0 | 0.0 | 0.00 | 0.18 | 0.00 | 89 | 1021.5 |
| 20260507222021 | 47 | 258 | 0.0 | 0.0 | 0.00 | 0.18 | 0.00 | 89 | 1021.5 |
| 20260507221525 | 47 | 258 | 0.0 | 0.0 | 0.00 | 0.18 | 0.00 | 88 | 1021.3 |
| 20260507221024 | 47 | 259 | 0.0 | 0.0 | 0.00 | 0.18 | 0.00 | 88 | 1021.4 |
| 20260507220522 | 47 | 260 | 0.0 | 0.0 | 0.00 | 0.18 | 0.00 | 88 | 1021.4 |
| 20260507220017 | 47 | 260 | 0.0 | 0.0 | 0.00 | 0.18 | 0.00 | 88 | 1021.4 |
| 20260507215517 | 47 | 258 | 0.0 | 0.0 | 0.00 | 0.18 | 0.18 | 88 | 1021.4 |
| 20260507215016 | 47 | 258 | 0.0 | 0.0 | 0.00 | 0.18 | 0.18 | 88 | 1021.3 |
| 20260507214516 | 47 | 258 | 0.0 | 0.0 | 0.00 | 0.18 | 0.18 | 88 | 1021.3 |
| 20260507214016 | 47 | 259 | 0.0 | 2.0 | 0.00 | 0.18 | 0.18 | 88 | 1021.3 |
| 20260507213515 | 47 | 259 | 0.0 | 2.0 | 0.00 | 0.18 | 0.18 | 87 | 1021.2 |
| 20260507213014 | 47 | 259 | 0.0 | 0.0 | 0.00 | 0.18 | 0.18 | 87 | 1021.2 |
| 20260507212514 | 47 | 260 | 0.0 | 0.0 | 0.00 | 0.18 | 0.18 | 87 | 1021.1 |
| 20260507212016 | 47 | 260 | 0.0 | 2.0 | 0.00 | 0.18 | 0.18 | 87 | 1021.1 |
| 20260507211515 | 47 | 260 | 0.0 | 3.0 | 0.00 | 0.18 | 0.18 | 87 | 1021.1 |
| 20260507211013 | 47 | 260 | 0.0 | 2.0 | 0.00 | 0.18 | 0.18 | 87 | 1021.1 |
| 20260507210513 | 47 | 218 | 0.0 | 2.0 | 0.00 | 0.18 | 0.18 | 87 | 1021.1 |
| 20260507210013 | 48 | 309 | 0.0 | 0.0 | 0.00 | 0.18 | 0.18 | 87 | 1021.1 |
| 20260507205514 | 48 | 309 | 0.0 | 0.0 | 0.00 | 0.18 | 0.18 | 88 | 1021.2 |
| 20260507205016 | 48 | 309 | 0.0 | 0.0 | 0.00 | 0.18 | 0.18 | 88 | 1021.2 |
| 20260507204513 | 48 | 216 | 0.0 | 0.0 | 0.00 | 0.18 | 0.18 | 88 | 1021.2 |
| 20260507204013 | 48 | 309 | 0.0 | 0.0 | 0.00 | 0.18 | 0.18 | 87 | 1021.2 |
| 20260507203513 | 48 | 309 | 0.0 | 2.0 | 0.00 | 0.18 | 0.18 | 88 | 1021.1 |
| 20260507203015 | 48 | 215 | 0.0 | 2.0 | 0.00 | 0.18 | 0.18 | 87 | 1021.1 |
| 20260507202511 | 48 | 216 | 0.0 | 2.0 | 0.00 | 0.18 | 0.18 | 87 | 1021.1 |
| 20260507202011 | 48 | 309 | 0.0 | 2.0 | 0.00 | 0.18 | 0.18 | 87 | 1021.1 |
| 20260507201511 | 48 | 309 | 1.0 | 2.0 | 0.00 | 0.18 | 0.18 | 88 | 1021.1 |
| 20260507201010 | 48 | 215 | 1.0 | 2.0 | 0.00 | 0.18 | 0.18 | 87 | 1021.0 |
| 20260507200510 | 49 | 309 | 0.0 | 0.0 | 0.00 | 0.18 | 0.18 | 87 | 1021.0 |
| 20260507200010 | 48 | 216 | 0.0 | 0.0 | 0.00 | 0.18 | 0.18 | 86 | 1020.9 |
| 20260507195509 | 48 | 309 | 0.0 | 0.0 | 0.00 | 0.18 | 0.18 | 87 | 1020.9 |
| 20260507195009 | 48 | 309 | 0.0 | 0.0 | 0.00 | 0.18 | 0.18 | 87 | 1020.8 |
| 20260507194508 | 48 | 309 | 0.0 | 2.0 | 0.00 | 0.18 | 0.18 | 87 | 1020.7 |
| 20260507194007 | 48 | 309 | 0.0 | 2.0 | 0.00 | 0.18 | 0.18 | 88 | 1020.7 |
| 20260507193507 | 48 | 309 | 0.0 | 3.0 | 0.00 | 0.18 | 0.18 | 88 | 1020.6 |
| 20260507193006 | 48 | 309 | 0.0 | 0.0 | 0.00 | 0.18 | 0.18 | 87 | 1020.6 |
| 20260507192505 | 48 | 309 | 0.0 | 3.0 | 0.00 | 0.18 | 0.18 | 88 | 1020.5 |
| 20260507192005 | 49 | 309 | 0.0 | 4.0 | 0.00 | 0.18 | 0.18 | 88 | 1020.4 |
| 20260507191508 | 49 | 309 | 2.0 | 4.0 | 0.00 | 0.18 | 0.18 | 89 | 1020.3 |
| 20260507191004 | 49 | 309 | 0.0 | 2.0 | 0.00 | 0.18 | 0.18 | 90 | 1020.2 |
| 20260507190504 | 49 | 247 | 0.0 | 1.0 | 0.00 | 0.18 | 0.18 | 91 | 1020.1 |
| 20260507190005 | 49 | 247 | 0.0 | 1.0 | 0.00 | 0.18 | 0.18 | 90 | 1020.1 |
| 20260507185502 | 49 | 247 | 0.0 | 0.0 | 0.00 | 0.18 | 0.18 | 89 | 1020.1 |
| 20260507185002 | 49 | 247 | 0.0 | 0.0 | 0.00 | 0.18 | 0.18 | 89 | 1020.0 |
| 20260507184505 | 49 | 247 | 0.0 | 0.0 | 0.00 | 0.18 | 0.18 | 88 | 1020.0 |
| 20260507184001 | 49 | 247 | 0.0 | 0.0 | 0.00 | 0.18 | 0.18 | 88 | 1020.0 |
| 20260507183500 | 49 | 247 | 0.0 | 0.0 | 0.00 | 0.18 | 0.18 | 87 | 1019.9 |
| 20260507183100 | 50 | 247 | 0.0 | 0.0 | 0.00 | 0.18 | 0.18 | 87 | 1019.8 |
| 20260507182559 | 50 | 247 | 0.0 | 0.0 | 0.00 | 0.18 | 0.18 | 87 | 1019.7 |
| 20260507182102 | 50 | 247 | 0.0 | 0.0 | 0.00 | 0.18 | 0.18 | 86 | 1019.7 |
| 20260507181559 | 50 | 247 | 0.0 | 0.0 | 0.00 | 0.18 | 0.18 | 85 | 1019.7 |
| 20260507181058 | 50 | 247 | 0.0 | 0.0 | 0.00 | 0.18 | 0.18 | 86 | 1019.6 |
| 20260507180602 | 50 | 247 | 0.0 | 0.0 | 0.00 | 0.18 | 0.18 | 87 | 1019.6 |
| 20260507180058 | 51 | 247 | 0.0 | 0.0 | 0.00 | 0.18 | 0.18 | 87 | 1019.6 |
| 20260507175557 | 51 | 247 | 0.0 | 0.0 | 0.01 | 0.18 | 0.18 | 87 | 1019.6 |
| 20260507175057 | 51 | 247 | 0.0 | 1.0 | 0.01 | 0.18 | 0.18 | 85 | 1019.5 |
| 20260507174556 | 51 | 247 | 0.0 | 2.0 | 0.01 | 0.18 | 0.18 | 85 | 1019.4 |
| 20260507174055 | 51 | 247 | 0.0 | 2.0 | 0.01 | 0.18 | 0.18 | 82 | 1019.3 |
| 20260507173555 | 51 | 247 | 0.0 | 2.0 | 0.01 | 0.18 | 0.18 | 86 | 1019.3 |
| 20260507173057 | 51 | 247 | 0.0 | 3.0 | 0.01 | 0.18 | 0.18 | 85 | 1019.3 |
| 20260507172554 | 51 | 247 | 0.0 | 3.0 | 0.01 | 0.18 | 0.18 | 85 | 1019.1 |
| 20260507172053 | 51 | 271 | 0.0 | 5.0 | 0.01 | 0.18 | 0.18 | 86 | 1019.1 |
| 20260507171556 | 51 | 269 | 2.0 | 8.0 | 0.01 | 0.18 | 0.18 | 88 | 1019.2 |
| 20260507171053 | 51 | 287 | 2.0 | 9.0 | 0.01 | 0.18 | 0.18 | 88 | 1019.2 |
| 20260507170552 | 52 | 322 | 2.0 | 9.0 | 0.01 | 0.18 | 0.18 | 87 | 1019.1 |
| 20260507170052 | 52 | 283 | 5.0 | 8.0 | 0.00 | 0.17 | 0.17 | 86 | 1018.9 |
| 20260507165550 | 53 | 263 | 3.0 | 5.0 | 0.00 | 0.17 | 0.17 | 82 | 1018.9 |
| 20260507165053 | 53 | 304 | 3.0 | 4.0 | 0.00 | 0.17 | 0.17 | 80 | 1018.8 |
| 20260507164550 | 53 | 79 | 0.0 | 0.0 | 0.00 | 0.17 | 0.17 | 78 | 1018.7 |
| 20260507164050 | 53 | 79 | 0.0 | 0.0 | 0.00 | 0.17 | 0.17 | 74 | 1018.7 |
| 20260507163551 | 53 | 79 | 0.0 | 0.0 | 0.00 | 0.17 | 0.17 | 74 | 1018.7 |
| 20260507163049 | 53 | 79 | 0.0 | 0.0 | 0.00 | 0.17 | 0.17 | 75 | 1018.7 |
| 20260507162549 | 53 | 79 | 0.0 | 0.0 | 0.00 | 0.17 | 0.17 | 77 | 1018.6 |
| 20260507162049 | 53 | 79 | 0.0 | 0.0 | 0.00 | 0.17 | 0.17 | 79 | 1018.5 |
| 20260507161548 | 53 | 79 | 0.0 | 0.0 | 0.00 | 0.17 | 0.17 | 77 | 1018.5 |
| 20260507161048 | 53 | 79 | 0.0 | 4.0 | 0.00 | 0.17 | 0.17 | 78 | 1018.4 |
| 20260507160548 | 53 | 79 | 0.0 | 4.0 | 0.00 | 0.17 | 0.17 | 79 | 1018.5 |
| 20260507160048 | 53 | 341 | 0.0 | 3.0 | 0.00 | 0.17 | 0.17 | 77 | 1018.4 |
| 20260507155547 | 53 | 4 | 0.0 | 3.0 | 0.00 | 0.17 | 0.17 | 76 | 1018.4 |
| 20260507155048 | 53 | 97 | 0.0 | 2.0 | 0.00 | 0.17 | 0.17 | 77 | 1018.5 |
| 20260507154548 | 53 | 93 | 0.0 | 0.0 | 0.00 | 0.17 | 0.17 | 79 | 1018.4 |
| 20260507154047 | 53 | 6 | 0.0 | 0.0 | 0.00 | 0.17 | 0.17 | 77 | 1018.4 |
| 20260507153546 | 53 | 314 | 0.0 | 2.0 | 0.00 | 0.17 | 0.17 | 78 | 1018.4 |
| 20260507153047 | 53 | 115 | 0.0 | 2.0 | 0.00 | 0.17 | 0.17 | 77 | 1018.4 |
| 20260507152549 | 53 | 115 | 0.0 | 0.0 | 0.00 | 0.17 | 0.17 | 77 | 1018.4 |
| 20260507152048 | 53 | 37 | 0.0 | 2.0 | 0.00 | 0.17 | 0.17 | 79 | 1018.4 |
| 20260507151547 | 53 | 37 | 0.0 | 3.0 | 0.00 | 0.17 | 0.17 | 83 | 1018.4 |
| 20260507151046 | 53 | 112 | 0.0 | 3.0 | 0.00 | 0.17 | 0.17 | 81 | 1018.4 |
| 20260507150546 | 53 | 112 | 1.0 | 4.0 | 0.00 | 0.17 | 0.17 | 81 | 1018.3 |
| 20260507150046 | 53 | 99 | 0.0 | 4.0 | 0.00 | 0.17 | 0.17 | 80 | 1018.4 |
| 20260507145546 | 53 | 99 | 0.0 | 2.0 | 0.00 | 0.17 | 0.17 | 81 | 1018.3 |
| 20260507145046 | 54 | 140 | 0.0 | 1.0 | 0.00 | 0.17 | 0.17 | 80 | 1018.3 |
| 20260507144546 | 54 | 140 | 0.0 | 1.0 | 0.00 | 0.17 | 0.17 | 81 | 1018.3 |
| 20260507144049 | 54 | 140 | 0.0 | 2.0 | 0.00 | 0.17 | 0.17 | 79 | 1018.3 |
| 20260507143544 | 54 | 140 | 0.0 | 2.0 | 0.00 | 0.17 | 0.17 | 81 | 1018.2 |
| 20260507143045 | 54 | 140 | 0.0 | 2.0 | 0.00 | 0.17 | 0.17 | 79 | 1018.2 |
| 20260507142546 | 54 | 140 | 0.0 | 2.0 | 0.00 | 0.17 | 0.17 | 82 | 1018.2 |
| 20260507142044 | 54 | 141 | 0.0 | 0.0 | 0.01 | 0.17 | 0.17 | 81 | 1018.2 |
| 20260507141545 | 54 | 141 | 0.0 | 1.0 | 0.02 | 0.17 | 0.17 | 81 | 1018.2 |
| 20260507141045 | 54 | 141 | 0.0 | 0.0 | 0.02 | 0.17 | 0.17 | 80 | 1018.1 |
| 20260507140544 | 53 | 141 | 0.0 | 3.0 | 0.03 | 0.17 | 0.17 | 80 | 1018.1 |
| 20260507140059 | 53 | 141 | 1.0 | 4.0 | 0.04 | 0.17 | 0.17 | 81 | 1018.1 |